Dresden, Germany

2:25 AM CET on March 25, 2017 (GMT +0100)
Dresden

Weather History for 10488 - November, 2013

Change the Weather History Date:

Tuesday, November 5, 2013

  Actual Average Record
Temperature  
Mean Temperature 43 °F -  
Max Temperature 47 °F - - ()
Min Temperature 39 °F - - ()
Degree Days  
Heating Degree Days 22    
Moisture  
Dew Point 38 °F    
Average Humidity 80    
Maximum Humidity 93    
Minimum Humidity 64    
Precipitation  
Precipitation 0.00 in - - ()
Sea Level Pressure  
Sea Level Pressure 29.45 in    
Wind  
Wind Speed 9 mph ()    
Max Wind Speed 18 mph    
Max Gust Speed -    
Visibility 7.7 miles    
Events Rain    
T = Trace of Precipitation, MM = Missing Value Source: Averaged Metar Reports

Daily Weather History Graph

Daily Weather History Graph

Search for Another Location

Airport or City:

Trip Planner

Search our weather history database for the weather conditions in past years. The results will help you decide how hot, cold, wet, or windy it might be!

Date:

Astronomy

Nov. 05, 2013 Rise Set
Actual Time 7:04 AM CET 4:31 PM CET
Civil Twilight 6:29 AM CET 5:07 PM CET
Nautical Twilight 5:49 AM CET 5:46 PM CET
Astronomical Twilight 5:11 AM CET 6:25 PM CET
Moon 9:10 AM CET (11/5) 6:06 PM CET (11/5)
Length of Visible Light 10h 38m
Length of Day
9h 27m
Waxing Crescent, 5% of the Moon is Illuminated
Nov 5
Waxing Crescent
Nov 10
First Quarter
Nov 17
Full
Nov 25
Last Quarter
Dec 3
New

Hourly Weather History & Observations

Time (CET) Temp. Windchill Dew Point Humidity Pressure Visibility Wind Dir Wind Speed Gust Speed Precip Events Conditions
12:00 AM 47 °F - 43 °F 82% 29.30 in 16 mi West 17.9 mph - - Rain Light Rain
12:20 AM 44.6 °F 38.8 °F 41.0 °F 87% 29.30 in 6.2 mi WNW 11.5 mph - N/A Rain Light Rain
12:50 AM 44.6 °F 39.7 °F 41.0 °F 87% 29.33 in 6.2 mi West 9.2 mph - N/A Rain Light Rain
1:00 AM 44 °F - 41 °F 86% 29.36 in 8 mi WNW 13.4 mph - - Rain Light Rain
1:20 AM 42.8 °F 37.5 °F 41.0 °F 93% 29.36 in 6.2 mi West 9.2 mph - N/A Rain Light Rain
1:50 AM 42.8 °F 37.5 °F 41.0 °F 93% 29.36 in 6.2 mi West 9.2 mph - N/A Rain Light Rain
2:00 AM 43 °F - 41 °F 92% 29.39 in 11 mi West 11.2 mph - - Rain Light Rain
2:20 AM 42.8 °F 38.6 °F 41.0 °F 93% 29.36 in 6.2 mi West 6.9 mph - N/A Rain Light Rain
2:50 AM 42.8 °F 38.6 °F 41.0 °F 93% 29.39 in 6.2 mi WSW 6.9 mph - N/A Rain Light Rain
3:00 AM 44 °F - 42 °F 89% 29.41 in 16 mi West 8.9 mph - - Rain Light Rain
3:20 AM 44.6 °F 41.4 °F 41.0 °F 87% 29.39 in 6.2 mi WSW 5.8 mph - N/A   Mostly Cloudy
3:50 AM 42.8 °F 38.0 °F 41.0 °F 93% 29.42 in 6.2 mi West 8.1 mph - N/A   Scattered Clouds
4:20 AM 42.8 °F 39.3 °F 39.2 °F 87% 29.42 in 6.2 mi WSW 5.8 mph - N/A   Partly Cloudy
4:50 AM 42.8 °F 38.6 °F 39.2 °F 87% 29.42 in 6.2 mi WSW 6.9 mph - N/A   Partly Cloudy
5:00 AM 42 °F - 38 °F 83% 29.46 in 19 mi WSW 11.2 mph - -   Scattered Clouds
5:20 AM 41.0 °F 36.4 °F 37.4 °F 87% 29.44 in 6.2 mi WSW 6.9 mph - N/A   Mostly Cloudy
5:50 AM 42.8 °F 38.0 °F 37.4 °F 81% 29.44 in 6.2 mi WSW 8.1 mph - N/A   Mostly Cloudy
6:00 AM 42 °F - 38 °F 80% 29.47 in 16 mi WSW 11.2 mph - -   Mostly Cloudy
6:20 AM 42.8 °F 37.5 °F 37.4 °F 81% 29.44 in 6.2 mi WSW 9.2 mph - N/A   Mostly Cloudy
6:50 AM 42.8 °F 38.0 °F 37.4 °F 81% 29.44 in 6.2 mi WSW 8.1 mph - N/A   Overcast
7:00 AM 43 °F - 38 °F 74% 29.49 in 22 mi WSW 11.2 mph - -   Partly Cloudy
7:20 AM 42.8 °F 37.0 °F 37.4 °F 81% 29.47 in 6.2 mi WSW 10.4 mph - N/A   Overcast
7:50 AM 42.8 °F 38.0 °F 37.4 °F 81% 29.47 in 6.2 mi WSW 8.1 mph - N/A   Overcast
8:00 AM 43 °F - 37 °F 74% 29.51 in 22 mi WSW 8.9 mph - -   Overcast
8:20 AM 42.8 °F 38.6 °F 37.4 °F 81% 29.50 in 6.2 mi WSW 6.9 mph - N/A Rain Light Rain
8:50 AM 44.6 °F 38.8 °F 37.4 °F 76% 29.50 in 6.2 mi WSW 11.5 mph - N/A Rain Light Rain
9:00 AM 44 °F - 38 °F 73% 29.54 in 22 mi WSW 8.9 mph - - Rain Light Rain
9:20 AM 44.6 °F 39.2 °F 39.2 °F 81% 29.50 in 6.2 mi West 10.4 mph - N/A Rain Light Rain
9:50 AM 44.6 °F 39.7 °F 39.2 °F 81% 29.50 in 6.2 mi West 9.2 mph - N/A   Mostly Cloudy
10:20 AM 44.6 °F 40.2 °F 39.2 °F 81% 29.50 in 6.2 mi West 8.1 mph - N/A   Mostly Cloudy
10:50 AM 44.6 °F 40.2 °F 39.2 °F 81% 29.50 in 6.2 mi WSW 8.1 mph - N/A   Mostly Cloudy
11:00 AM 45 °F - 40 °F 75% 29.54 in 22 mi West 11.2 mph - - Rain Light Rain
11:20 AM 46.4 °F 42.4 °F 39.2 °F 76% 29.50 in 6.2 mi WSW 8.1 mph - N/A   Mostly Cloudy
11:50 AM 48.2 °F - 39.2 °F 71% 29.50 in 6.2 mi West 9.2 mph - N/A   Mostly Cloudy
12:00 PM 47 °F - 40 °F 68% 29.52 in 22 mi West 11.2 mph - -   Mostly Cloudy
12:20 PM 46.4 °F 42.9 °F 39.2 °F 76% 29.50 in 6.2 mi West 6.9 mph - N/A   Mostly Cloudy
12:50 PM 48.2 °F - 39.2 °F 71% 29.47 in 6.2 mi WSW 10.4 mph - N/A   Mostly Cloudy
1:00 PM 47 °F - 40 °F 69% 29.52 in 25 mi West 11.2 mph - -   Partly Cloudy
1:20 PM 46.4 °F 42.4 °F 39.2 °F 76% 29.50 in 6.2 mi West 8.1 mph - N/A   Mostly Cloudy
1:50 PM 46.4 °F 42.9 °F 39.2 °F 76% 29.47 in 6.2 mi WSW 6.9 mph - N/A   Mostly Cloudy
2:20 PM 46.4 °F 43.5 °F 39.2 °F 76% 29.47 in 6.2 mi WSW 5.8 mph - N/A   Mostly Cloudy
2:50 PM 46.4 °F 42.4 °F 39.2 °F 76% 29.47 in 6.2 mi WSW 8.1 mph - N/A   Mostly Cloudy
3:00 PM 47 °F - 39 °F 64% 29.51 in 25 mi WSW 8.9 mph - - Rain Light Rain
3:20 PM 46.4 °F 42.4 °F 37.4 °F 71% 29.47 in 6.2 mi SW 8.1 mph - N/A   Mostly Cloudy
3:50 PM 44.6 °F 40.7 °F 39.2 °F 81% 29.47 in 6.2 mi SW 6.9 mph - N/A   Mostly Cloudy
4:20 PM 44.6 °F 40.2 °F 39.2 °F 81% 29.47 in 6.2 mi SW 8.1 mph - N/A   Mostly Cloudy
4:50 PM 44.6 °F 40.7 °F 37.4 °F 76% 29.47 in - SW 6.9 mph - N/A   Clear
5:00 PM 45 °F - 39 °F 72% 29.50 in 25 mi SW 6.7 mph - -   Mostly Cloudy
5:20 PM 46.4 °F 44.3 °F 37.4 °F 71% 29.47 in - WSW 4.6 mph - N/A   Clear
5:50 PM 44.6 °F 41.4 °F 37.4 °F 76% 29.47 in - SW 5.8 mph - N/A   Clear
6:00 PM 45 °F - 38 °F 69% 29.50 in 25 mi SW 8.9 mph - -   Mostly Cloudy
6:20 PM 44.6 °F 40.2 °F 37.4 °F 76% 29.44 in - SW 8.1 mph - N/A   Clear
6:50 PM 44.6 °F 40.2 °F 35.6 °F 71% 29.44 in - SW 8.1 mph - N/A   Clear
7:00 PM 44 °F - 37 °F 67% 29.49 in 25 mi SW 8.9 mph - -   Partly Cloudy
7:20 PM 42.8 °F 38.0 °F 35.6 °F 76% 29.44 in - SW 8.1 mph - N/A   Clear
7:50 PM 41.0 °F 35.8 °F 35.6 °F 81% 29.42 in - SSW 8.1 mph - N/A   Clear
8:00 PM 41 °F - 35 °F 72% 29.47 in 25 mi SSW 6.7 mph - -   Scattered Clouds
8:20 PM 41.0 °F 35.8 °F 35.6 °F 81% 29.42 in - South 8.1 mph - N/A   Clear
8:50 PM 39.2 °F 34.2 °F 35.6 °F 87% 29.42 in - South 6.9 mph - N/A   Clear
9:00 PM 40 °F - 35 °F 75% 29.45 in 25 mi SSE 6.7 mph - -   Scattered Clouds
9:20 PM 39.2 °F 34.2 °F 35.6 °F 87% 29.42 in - South 6.9 mph - N/A   Clear
9:50 PM 39.2 °F 32.5 °F 35.6 °F 87% 29.42 in - South 10.4 mph - N/A   Clear
10:20 PM 39.2 °F 33.6 °F 35.6 °F 87% 29.39 in - South 8.1 mph - N/A   Clear
10:50 PM 39.2 °F 34.2 °F 33.8 °F 81% 29.39 in - SE 6.9 mph - N/A   Clear
11:00 PM 39 °F - 35 °F 78% 29.43 in 19 mi South 8.9 mph - -   Partly Cloudy
11:20 PM 41.0 °F 36.4 °F 35.6 °F 81% 29.39 in - South 6.9 mph - N/A   Clear
11:50 PM 39.2 °F 33.6 °F 33.8 °F 81% 29.36 in - South 8.1 mph - N/A   Clear